Theta_e
351 351 350 351 345 350 351 350 350 349 346 344 344 346 344 345 346 346 347 346 344 345 342 336 340 340 337 343 338 335 338 342 335 331 335 345 338 334 343 339 342 338 336
350 351 351 349 351 345 348 350 349 347 346 344 345 346 346 348 348 348 349 348 345 345 342 337 336 338 338 340 338 334 333 337 341 337 332 340 342 335 335 338 335 333 340
350 350 349 348 349 349 349 349 349 349 346 345 345 345 346 347 348 348 349 349 349 345 342 338 339 339 340 339 341 339 336 332 333 341 336 336 335 333 334 334 335 338 342
350 350 348 347 347 350 349 346 347 347 346 344 344 344 345 346 347 346 348 348 349 349 345 340 341 342 342 342 342 342 342 341 338 335 334 334 336 341 344 343 339 336 333
349 349 348 349 349 348 348 347 345 344 346 346 345 344 345 346 347 347 347 348 347 347 347 347 343 343 344 344 343 343 344 344 343 342 341 339 337 336 339 341 341 340 339
349 347 349 351 350 349 351 350 347 344 341 345 344 343 345 347 348 348 348 347 347 348 347 349 349 348 345 344 344 344 345 345 345 344 344 344 343 342 341 340 341 340 341
348 348 348 350 349 350 351 351 349 348 342 345 346 345 347 349 348 347 348 347 347 347 347 348 348 347 347 346 344 345 345 345 346 345 345 345 345 345 344 343 343 343 343
348 348 348 349 350 350 351 351 351 350 348 349 347 348 348 346 348 347 347 348 348 347 347 348 348 346 347 348 349 345 345 345 344 346 346 346 346 346 346 346 345 345 345
349 350 351 351 351 350 349 350 350 351 350 349 349 347 352 350 347 346 348 348 348 348 348 348 350 350 350 350 349 347 345 346 345 345 346 346 347 346 347 347 347 347 346
349 350 350 351 351 350 349 350 349 349 349 348 347 347 347 348 352 348 346 347 348 349 349 348 348 349 351 351 351 349 347 346 346 346 346 347 347 347 347 346 346 346 345
350 351 351 351 350 351 350 350 350 350 349 349 346 348 348 347 348 348 350 346 346 347 348 349 347 348 349 347 348 348 346 346 346 347 347 345 347 348 348 347 346 346 345
350 351 352 352 351 351 351 350 350 349 346 348 346 345 347 347 348 349 350 348 346 346 345 345 344 345 345 346 345 341 343 346 346 346 346 344 347 348 348 346 347 346 346
350 350 352 353 352 350 348 347 345 347 351 348 348 348 348 348 348 347 348 347 348 345 345 344 345 346 346 346 346 344 342 342 344 344 343 345 348 348 346 345 345 346 343
350 350 351 352 352 352 351 349 349 346 345 345 345 347 347 348 348 346 347 347 348 345 346 346 345 344 345 346 344 343 344 344 342 344 346 346 348 347 344 344 345 344 341
351 351 351 351 352 353 352 350 347 347 346 346 346 346 348 346 347 348 347 347 347 349 348 345 345 343 342 342 343 344 348 345 343 345 347 347 346 345 344 344 344 341 339
351 351 352 352 352 352 352 350 346 347 346 348 347 346 346 346 345 347 347 347 347 346 349 344 346 346 345 345 344 343 346 343 343 345 345 344 344 344 344 343 341 339 338
350 349 351 351 352 352 352 351 349 346 347 350 349 349 349 348 345 346 348 348 348 348 347 345 346 344 346 346 345 342 341 344 346 342 343 343 344 344 343 341 340 338 337
351 350 350 351 351 351 351 351 351 350 350 351 351 351 350 350 350 348 348 347 347 345 344 345 345 344 345 345 341 341 343 342 342 343 343 344 344 343 342 340 338 337 337
348 349 349 351 351 352 352 351 350 349 348 349 351 351 350 350 350 349 349 347 346 345 344 346 345 343 344 344 343 341 342 342 342 341 342 342 342 340 338 337 336 336 336
344 347 347 349 350 351 352 350 348 348 346 347 348 350 350 350 350 349 348 348 348 347 345 345 343 341 343 344 343 343 342 342 342 340 339 340 339 337 337 336 336 335 335
339 341 343 345 349 349 350 349 350 348 348 348 346 348 350 349 348 348 346 347 347 347 345 342 342 342 343 342 342 343 343 343 340 341 342 341 339 338 337 335 336 336 335
337 338 339 343 345 346 347 347 349 351 350 347 347 347 349 346 345 345 343 345 347 347 345 344 343 342 343 344 344 343 342 341 342 342 341 341 340 340 339 339 338 336 335
338 338 340 340 342 342 342 342 344 345 346 345 345 345 345 347 347 347 345 344 344 344 344 346 346 345 345 346 344 345 343 342 343 341 341 339 340 339 339 339 336 334 335
336 335 338 338 337 338 336 338 338 342 341 341 341 343 342 345 344 344 347 346 345 345 344 344 345 346 346 342 343 344 344 343 342 341 338 340 340 338 339 338 335 333 334
337 336 337 339 338 336 335 335 336 337 337 339 338 339 341 342 342 342 342 345 345 346 344 344 344 344 343 342 343 344 344 342 340 338 338 337 339 338 338 337 336 333 333
338 339 340 339 339 339 338 338 336 336 336 339 339 339 339 338 337 335 336 339 343 342 345 345 343 342 342 342 341 342 343 343 341 341 339 337 338 338 338 337 336 335 333
Wind_Speed
16 14 14 13 13 12 12 12 12 12 11 12 11 10 8 8 8 8 9 14 15 12 11 10 12 13 14 14 13 13 14 14 13 14 14 13 13 12 13 12 12 13 11
17 16 15 15 12 12 12 12 12 12 12 12 11 10 10 8 8 8 7 7 12 13 13 11 11 12 13 13 14 14 14 15 15 15 15 15 15 15 15 16 15 14 14
19 16 15 15 14 13 13 12 10 10 11 11 12 12 11 10 9 8 6 5 8 14 14 13 12 13 13 13 14 15 15 16 16 18 17 17 17 17 17 16 16 16 17
21 19 16 15 14 13 13 11 11 11 11 12 12 13 12 11 11 11 9 7 8 10 14 16 15 15 13 15 15 16 16 17 17 18 19 18 18 18 17 17 17 18 19
22 20 18 16 15 14 13 13 11 12 12 12 12 12 12 12 12 12 12 11 11 12 13 15 19 18 17 18 17 18 18 17 18 18 19 19 19 19 20 20 19 19 20
22 23 19 17 16 16 14 14 13 12 13 13 13 14 14 15 14 14 13 15 15 15 17 17 16 18 23 22 22 21 21 20 19 18 19 20 21 21 20 20 20 19 21
21 22 20 19 19 18 17 16 14 15 15 13 10 14 16 17 18 17 15 16 17 17 17 18 18 19 20 22 24 26 26 25 22 21 21 22 22 22 21 21 21 22 23
22 22 22 20 20 19 18 18 17 15 15 15 11 10 7 13 16 19 19 19 19 19 19 20 20 22 21 19 20 23 24 26 27 26 25 23 22 23 23 23 22 23 23
25 25 23 22 20 21 20 20 20 20 17 16 16 9 3 5 7 11 15 19 21 21 21 20 19 20 21 21 22 24 26 24 25 25 25 25 25 22 21 22 23 23 22
26 26 26 24 22 21 22 22 21 23 22 20 13 17 17 6 4 5 5 6 9 11 14 17 18 20 19 19 21 26 29 29 26 26 25 24 26 24 21 20 21 22 22
25 25 25 24 23 22 22 23 21 23 22 22 23 13 19 20 16 11 10 13 14 13 11 9 11 12 13 17 17 19 23 25 27 25 23 22 25 25 23 21 21 21 21
26 26 26 25 26 24 24 24 25 25 27 22 21 22 21 15 15 14 11 17 16 19 18 18 18 18 18 17 20 22 19 20 23 23 25 24 24 22 21 20 20 20 20
26 28 28 25 25 26 30 32 28 26 22 25 24 24 23 22 20 17 17 18 14 15 13 16 15 15 15 17 18 21 22 20 17 18 21 21 19 19 18 18 19 19 19
26 27 30 28 26 25 25 28 29 32 31 30 29 27 26 22 20 23 22 15 11 17 16 16 11 13 13 15 18 21 20 20 18 17 16 16 17 17 16 17 16 16 17
24 24 27 30 30 26 25 26 30 29 32 32 32 30 27 25 20 22 20 20 18 11 9 16 11 8 9 10 14 16 16 17 17 13 12 14 14 15 14 13 13 13 15
27 25 27 27 28 27 24 28 32 30 28 28 30 32 30 27 24 18 17 18 17 18 11 14 13 11 11 14 11 10 11 14 15 11 9 10 12 13 12 11 11 12 13
32 33 31 27 27 27 27 25 27 31 28 25 22 22 23 24 24 21 17 17 14 14 11 17 14 12 13 10 10 12 9 8 8 10 12 13 12 11 10 10 10 12 12
27 28 32 31 29 29 27 24 24 23 24 25 24 22 21 19 20 19 17 15 15 15 12 14 12 10 10 8 11 11 7 9 8 7 9 11 11 11 10 10 11 10 11
33 31 33 32 30 29 26 25 25 25 28 26 24 24 22 20 20 17 18 16 15 13 14 12 12 8 9 7 6 9 8 7 8 9 10 10 10 10 11 11 10 10 10
22 27 31 33 31 28 26 26 25 25 28 31 29 23 21 21 21 19 19 19 15 13 14 13 11 10 9 9 8 7 8 10 8 9 9 10 11 10 11 10 10 10 10
17 21 23 21 22 22 21 21 19 24 27 30 29 25 21 21 22 20 18 17 15 14 12 12 10 10 9 7 9 7 10 9 10 10 10 11 10 11 12 13 13 12 11
14 16 19 16 16 13 12 17 20 18 20 25 26 25 20 22 24 21 21 20 16 17 15 13 12 13 14 12 11 10 9 7 4 9 13 13 12 13 13 12 15 14 11
7 8 11 15 15 14 17 13 11 11 21 23 20 22 20 18 23 18 21 23 22 22 22 16 16 17 16 15 13 11 11 11 12 7 7 9 11 14 13 14 20 16 14
15 16 13 9 9 9 11 14 14 25 26 21 16 17 19 21 18 16 15 16 19 21 25 25 24 22 20 19 16 12 11 11 11 10 11 7 9 12 11 11 15 18 17
13 17 21 14 11 17 17 17 20 23 21 21 18 19 16 18 14 18 17 17 20 20 21 25 27 26 25 23 19 11 13 11 9 11 13 10 11 11 11 13 12 15 19
5 6 8 9 12 15 17 20 24 27 17 19 21 21 19 11 5 3 7 12 17 21 19 21 23 27 27 25 25 21 19 17 14 8 14 12 13 10 7 9 12 12 18
Wind_Direction
196 196 196 193 195 196 187 188 188 191 200 206 213 221 227 236 245 260 266 267 250 236 230 238 239 242 240 245 245 242 239 251 250 248 247 253 258 256 250 258 252 261 259
198 199 198 201 200 198 200 200 199 200 203 210 217 225 231 237 250 264 271 267 227 221 227 236 246 252 250 246 251 250 247 248 253 255 252 248 256 259 253 257 259 258 260
200 199 204 202 204 203 206 204 206 207 210 216 222 228 232 240 245 256 269 256 238 225 225 237 243 248 253 256 257 259 258 255 253 256 258 256 257 260 260 261 262 262 261
200 199 202 205 204 206 207 211 212 220 221 224 228 230 234 243 250 252 258 258 239 232 237 236 245 250 255 259 261 264 266 264 263 260 259 260 261 262 261 264 267 268 266
205 202 203 205 201 205 209 213 217 218 222 228 235 238 242 246 255 251 253 252 249 239 241 251 249 249 253 260 263 264 267 267 269 268 267 266 265 262 262 265 266 272 271
209 207 209 207 208 210 216 218 218 219 223 232 237 240 243 244 252 250 253 251 249 251 249 252 256 258 255 255 260 261 263 265 266 269 268 268 270 269 267 266 265 264 268
215 213 213 214 211 209 215 215 219 221 220 222 235 246 252 250 250 248 249 250 248 250 250 254 258 256 260 264 260 261 261 262 262 263 265 267 268 269 270 268 267 269 273
218 218 218 216 214 213 212 213 214 220 224 215 223 240 254 245 245 248 246 250 251 252 253 254 253 258 258 260 260 267 266 265 265 264 262 264 268 269 270 271 271 270 272
221 222 223 223 222 217 220 217 215 219 225 221 217 217 211 240 265 243 243 249 254 256 259 257 256 257 259 258 262 266 267 267 263 262 264 264 263 266 267 270 271 272 274
217 221 222 224 225 224 225 225 224 225 231 231 226 233 233 236 235 266 243 256 257 259 257 257 260 262 263 262 263 265 268 269 267 266 262 265 261 259 261 268 270 269 271
218 219 221 221 224 230 232 228 224 227 228 233 235 233 237 236 245 254 272 267 267 270 262 263 272 273 273 275 271 271 279 270 266 264 262 267 259 254 252 261 264 267 266
214 217 221 223 227 227 230 232 229 236 238 235 237 241 234 236 236 238 255 267 267 275 270 271 273 272 271 268 272 271 273 271 265 263 262 266 267 247 248 255 257 261 265
212 215 215 218 226 234 237 241 244 241 232 236 238 242 244 241 240 246 252 267 268 271 279 275 270 270 272 271 271 271 266 264 264 264 260 257 250 238 243 251 257 260 270
218 216 213 215 224 227 234 241 243 242 249 249 249 246 248 245 244 242 248 249 266 268 269 277 282 279 279 276 272 273 266 260 265 265 252 249 229 233 248 254 255 265 275
225 221 221 218 217 222 228 235 249 252 247 249 253 255 245 247 246 246 244 244 247 270 270 275 278 278 288 293 285 271 264 269 268 255 242 235 239 243 244 250 257 267 276
222 224 223 224 218 212 221 240 248 245 249 251 246 247 247 245 241 244 245 246 243 251 270 275 271 277 283 289 283 282 266 271 266 251 240 249 253 244 244 250 262 273 277
216 220 223 220 224 219 214 222 239 243 243 242 239 242 242 243 241 240 241 230 225 233 250 268 262 272 277 274 273 289 271 260 266 255 240 237 237 241 246 256 266 267 272
224 219 220 219 218 221 214 211 221 234 232 235 236 234 236 236 233 232 227 224 228 231 229 252 256 263 261 263 274 272 260 250 247 254 233 224 231 243 250 255 256 263 273
217 219 221 225 212 217 213 209 217 235 241 239 232 225 227 225 227 221 226 227 225 225 231 240 259 257 264 254 259 269 261 238 236 235 227 226 229 231 240 242 247 255 264
231 229 229 223 221 220 217 214 223 227 243 242 236 224 223 217 223 220 224 224 224 217 222 231 243 250 249 257 250 248 250 247 239 237 235 218 223 230 239 242 248 250 259
234 232 229 229 218 207 215 210 205 217 229 235 239 230 218 215 220 218 219 222 220 220 221 232 237 245 250 236 235 246 247 244 249 241 236 237 234 234 237 245 246 251 259
210 232 228 222 198 194 215 228 208 210 224 234 231 230 219 218 226 228 226 227 219 218 220 218 226 232 243 242 246 228 231 226 252 244 243 253 241 242 242 242 236 242 253
228 232 220 214 211 214 213 215 213 221 234 226 234 233 226 220 226 223 229 237 239 238 234 229 233 235 243 237 240 233 229 238 247 245 225 259 241 247 247 244 240 238 245
289 271 259 269 255 242 236 219 228 229 233 231 229 243 242 241 229 232 229 235 234 236 239 236 238 244 243 257 251 245 238 242 249 240 228 259 253 254 259 251 252 237 233
244 250 258 245 233 233 228 224 223 214 228 228 224 240 254 246 237 246 245 252 248 246 249 249 248 250 257 259 256 241 235 217 221 235 225 229 237 252 251 252 251 238 230
239 241 235 235 229 226 221 229 225 226 235 233 215 220 222 225 242 274 310 280 257 258 257 253 265 250 248 251 252 235 238 235 234 235 225 213 233 226 245 238 241 231 223